Comodoro Rivadavia, Argentina

4:27 PM America en Octubre 21, 2018 (GMT +0000)
GEN. Enrique Mosconi International

Tiempo Historia de SAVC - Octubre, 2018

Change the Weather History Date:

Viernes, Octubre 12, 2018

  Actual Average Record
Temperature  
Temperatura media 58 ° F -  
Temperatura máxima 71 ° F 68 ° F 78 ° F (1996)
Temperatura mínima 44 ° F 47 ° F 37 ° F (1998)
Degree Days  
Grados día de calefacción 8    
Growing Degree Days 8 (Base 50)    
Moisture  
Punto de rocío 30 ° F    
Average Humidity 32    
Maximum Humidity 59    
Minimum Humidity 13    
Precipitación  
Precipitación 0.00 pul 0.02 pul - ()
Presión al nivel del mar  
Presión al nivel del mar 29.85 pul    
Viento  
Velocidad del viento 14 mph ()    
Velocidad máxima del viento 22 mph    
Max Gust Speed 34 mph    
Visibilidad 13.5 Millas    
Eventos      
Averages and records for this station are not official NWS values.
T = Trace of Precipitation, MM = Missing Value Source: Averaged Metar Reports

Daily Weather History Graph

Daily Weather History Graph

Search for Another Location

Airport or City:

Astronomía

Oct. 12, 2018 Salida Puesta
Hora real 6:40 AM -03 7:52 PM -03
Crepúsculo civil 6:10 AM -03 8:23 PM -03
Crepúsculo náutico 5:33 AM -03 9:00 PM -03
Crepúsculo astronómico 4:54 AM -03 9:39 PM -03
Luna 8:57 AM -03 (10/12) 11:52 PM -03 (10/12)
Horas de luz 14h 13m
Horas de luz
13h 12m
Creciente, 14% of the Moon is Illuminated
Oct 12
Creciente
Oct 16
Cuarto creciente
Oct 24
Luna llena
Oct 31
Cuarto menguante
Nov 7
Nueva

Hourly Weather History & Observations

Hora (-03) Temp. Vientos helados Punto de rocío Humedad Presión Visibilidad Wind Dir Velocidad del viento Velocidad de ráfagas Precip Eventos Condiciones
12:00 AM 53 ° F - 24 ° F 20% 29.80 pul 19 mi Oeste 10.4 mph - -  
12:00 AM 53.6 ° F - 24.8 ° F 33% 29.83 pul - Oeste 10.4 mph - N/A   Despejado
1:00 AM 53.6 ° F - 24.8 ° F 33% 29.83 pul - Oeste 8.1 mph - N/A   Despejado
2:00 AM 51.8 ° F - 21.2 ° F 30% 29.86 pul - Oeste 11.5 mph - N/A   Despejado
3:00 AM 49 ° F - 22 ° F 22% 29.83 pul 19 mi Oeste 15.0 mph - -  
3:00 AM 50.0 ° F - 21.2 ° F 32% 29.86 pul - Oeste 15.0 mph - N/A   Despejado
4:00 AM 48.2 ° F - 21.2 ° F 34% 29.86 pul - Oeste 13.8 mph - N/A   Despejado
5:00 AM 46.4 ° F 40.1 ° F 24.8 ° F 43% 29.89 pul - Oeste 15.0 mph - N/A   Despejado
6:00 AM 46 ° F - 27 ° F 35% 29.85 pul 19 mi Oeste 13.8 mph - -   Despejado
6:00 AM 46.4 ° F 40.4 ° F 26.6 ° F 46% 29.89 pul - Oeste 13.8 mph - N/A   Despejado
7:00 AM 46.4 ° F 39.8 ° F 26.6 ° F 46% 29.89 pul - Oeste 16.1 mph 27.6 mph N/A   Despejado
8:00 AM 50.0 ° F - 35.6 ° F 58% 29.89 pul - Oeste 19.6 mph - N/A   Despejado
9:00 AM 55 ° F - 32 ° F 29% 29.88 pul 19 mi Oeste 20.7 mph - -   Despejado
9:00 AM 55.4 ° F - 32.0 ° F 41% 29.92 pul - Oeste 20.7 mph - N/A   Despejado
10:00 AM 55.4 ° F - 32.0 ° F 41% 29.89 pul - ONO 19.6 mph 31.1 mph N/A   Despejado
11:00 AM 57.2 ° F - 32.0 ° F 38% 29.89 pul - Oeste 20.7 mph - N/A   Despejado
12:00 PM 61 ° F - 33 ° F 23% 29.85 pul 19 mi Oeste 16.1 mph - -   Nubes dispersas
12:00 PM 60.8 ° F - 33.8 ° F 36% 29.89 pul - Oeste 16.1 mph - N/A   Despejado
1:00 PM 64.4 ° F - 35.6 ° F 34% 29.86 pul - Oeste 18.4 mph 34.5 mph N/A   Despejado
2:00 PM 68.0 ° F - 33.8 ° F 28% 29.83 pul 6.2 mi Oeste 21.9 mph 34.5 mph N/A   Parcialmente nublado
3:00 PM 69 ° F - 31 ° F 14% 29.79 pul 19 mi Oeste 18.4 mph - -   Nubes dispersas
3:00 PM 69.8 ° F - 32.0 ° F 25% 29.83 pul 6.2 mi Oeste 18.4 mph 34.5 mph N/A   Parcialmente nublado
4:00 PM 68.0 ° F - 32.0 ° F 26% 29.83 pul 6.2 mi Oeste 19.6 mph 34.5 mph N/A   Nubes dispersas
5:00 PM 71.6 ° F - 30.2 ° F 22% 29.80 pul 6.2 mi Oeste 17.3 mph 29.9 mph N/A   Muy nublado
6:00 PM 70 ° F - 30 ° F 13% 29.77 pul 19 mi Oeste 18.4 mph - -   Parcialmente nublado
6:00 PM 69.8 ° F - 30.2 ° F 23% 29.80 pul 6.2 mi Oeste 18.4 mph 29.9 mph N/A   Nubes dispersas
7:00 PM 68.0 ° F - 30.2 ° F 24% 29.83 pul 6.2 mi Oeste 18.4 mph - N/A   Parcialmente nublado
8:00 PM 66.2 ° F - 32.0 ° F 28% 29.83 pul - Oeste 17.3 mph - N/A   Despejado
9:00 PM 63 ° F - 33 ° F 20% 29.83 pul 19 mi Oeste 19.6 mph - -   Despejado
9:00 PM 62.6 ° F - 32.0 ° F 32% 29.86 pul - Oeste 19.6 mph - N/A   Despejado
10:00 PM 59.0 ° F - 44.6 ° F 59% 29.89 pul - ONO 16.1 mph 28.8 mph N/A   Despejado
11:00 PM 57.2 ° F - 33.8 ° F 41% 29.89 pul - ONO 20.7 mph 32.2 mph N/A   Despejado